Regional Weather Roundup
Issued by NWS

Home | Current Version | Previous Version | Text Only | Print | Product List | Glossary Off
Versions: 1 2 3 4 5 6 7 8 9 10 11 12 13 14 15 16 17 18 19 20 21 22 23 24 25 26 27 28 29 30 31 32 33 34 35 36 37 38 39 40 41 42 43 44

000
ASUS45 KSLC 030610
RWRUT

UTAH REGIONAL WEATHER ROUNDUP
NATIONAL WEATHER SERVICE SALT LAKE CITY UT
1200 AM MDT THU SEP 03 2015

UTZ001>011-023>025-030700-

NORTHERN UTAH

CITY           SKY/WX    TMP DP  RH WIND       PRES   REMARKS
BRIGHAM CITY   PTCLDY    83  30  14 S21G26    29.84R
HILL AFB       CLOUDY    79  38  22 S16       29.89S
LOGAN          PTCLDY    73  42  32 S8        29.85S
OGDEN          PTCLDY    81  37  20 S14       29.86S
PROVO AIRPORT  PTCLDY    72  39  30 S13       29.95R
SALT LAKE CITY MOCLDY    83  32  16 S20G28    29.86S
VERNAL         MOCLDY    69  41  36 NW5       30.02S
WENDOVER       CLEAR     82  27  13 SW24      29.82S
HEBER CITY     MOCLDY    70  32  24 S5        30.01S
WEST JORDAN    CLEAR     79  36  21 SE17G24   29.91S

$$

UTZ012>022-026-027-030700-

SOUTHERN/CENTRAL UTAH

CITY           SKY/WX    TMP DP  RH WIND       PRES   REMARKS
BLANDING       CLOUDY    65  49  56 CALM      30.25S
BRYCE CANYON   MOCLDY    50  37  61 W5        30.26R
CEDAR CITY     MOCLDY    69  34  27 SW6       30.08S
DELTA          PTCLDY    73  34  24 S12       29.98S
HANKSVILLE     PTCLDY    73  41  31 SE3       30.00R
MILFORD        MOCLDY    69  38  32 SW10      30.02S
MOAB/CYNLANDS  MOCLDY    74  43  32 CALM      29.97F
PRICE          MOCLDY    70  39  32 E9        30.06S
ST GEORGE      MOCLDY    82  39  21 NE3       29.92S
KANAB          MOCLDY    61  54  77 CALM      30.13S

$$

REGIONAL REPORTS     COLORADO/ARIZONA

CITY           SKY/WX    TMP DP  RH WIND       PRES   REMARKS
CRAIG, CO      PTCLDY    55  48  77 CALM      30.13S
GRAND JUNCTION PTCLDY    72  50  45 E12       30.03S
RIFLE          PTCLDY    63  51  65 CALM      30.10S
MONTROSE       MOCLDY    66  49  54 SE10      30.15S
CORTEZ         CLOUDY    62  56  80 NE6       30.18F
PAGE, AZ       PTCLDY    78  51  38 S10       30.02R
GRAND CANYON   PTCLDY    52  45  77 NE3       30.24F
KINGMAN        CLEAR     73  44  35 S10       29.99S
FLAGSTAFF      CLEAR     51  40  65 CALM      30.28F

$$

REGIONAL REPORTS    NEVADA/IDAHO/WYOMING

CITY           SKY/WX    TMP DP  RH WIND       PRES   REMARKS
LAS VEGAS, NV  PTCLDY    88  42  20 S9        29.81R
ELY            CLEAR     64  34  32 S10       30.05R
ELKO           PTCLDY    61  24  24 N3        29.89S
POCATELLO, ID  CLEAR     66  42  41 CALM      29.80F
BURLEY         CLEAR     56  46  69 S3        29.77S
EVANSTON, WY   PTCLDY    61  34  36 SE8       30.10S
ROCK SPRINGS   CLEAR     64  37  36 S6        30.10F
KEMMERER       PTCLDY    59  32  36 CALM      30.12S

$$



USA.gov is the U.S. government's official web portal to all federal, state and local government web resources and services.